Flag for U.S.A. Weather past 2 weeks in Ocala, Florida, U.S.A.

77 °F

Partly sunny.

Feels Like: 79 °F
Forecast: 61 / 78 °F
Wind: 7 mph from Northeast

Location: Ocala Municipal

Current Time: Nov 29, 2015 at 2:45:28 PM

Latest Report: Nov 29, 2015 at 1:50 PM

Visibility: 10 mi

Pressure: 30.09 "Hg

Humidity: 57%

Dew point: 61 °F

Location of OcalaLocation

Historic Weather in Ocala — Graph


Ocala temperature yesterday

Maximum temperature yesterday: 79 °F (at 12:50 PM)
Minimum temperature yesterday: 63 °F (at 12:35 AM)
Average temperature yesterday: 66 °F

Past Weeks' High & Low Weather Summary

High88 °F (Nov 18, 1:50 PM)94% (Nov 16, 4:35 AM)30.44 "Hg (Nov 16, 4:35 AM)
Low37 °F (Nov 23, 6:15 AM)28% (Nov 23, 2:50 PM)29.84 "Hg (Nov 22, 2:55 AM)
Average65 °F78%30.16 "Hg
* Reported Nov 14 12:50 PM — Nov 29 12:50 PM, Ocala, Weather by CustomWeather, © 2015

Note: Actual official high and low records may vary slightly from our data, if they occured in-between our weather recording intervals... More about our weather records


Ocala weather history for previous 24 hours

Time TempWeatherWind HumidityBarometerVisibility
12:50 PM
Sun, Nov 29
77 °FScattered clouds.5 mph54%30.12 "Hg10 mi
11:50 AM77 °FPassing clouds.6 mph54%30.15 "Hg10 mi
10:50 AM75 °FSunny.9 mph61%30.18 "Hg10 mi
9:50 AM72 °FSunny.6 mph65%30.18 "Hg10 mi
8:50 AM66 °FSunny.5 mph73%30.18 "Hg10 mi
7:50 AM61 °FSunny.No wind88%30.16 "Hg10 mi
6:50 AM61 °FClear.No wind88%30.17 "Hg10 mi
6:35 AM61 °FClear.No wind88%30.16 "Hg10 mi
6:15 AM61 °FClear.No wind88%30.16 "Hg10 mi
5:55 AM59 °FClear.3 mph88%30.15 "Hg10 mi
5:35 AM61 °FClear.No wind88%30.16 "Hg10 mi
5:15 AM61 °FClear.No wind88%30.15 "Hg10 mi
4:35 AM61 °FClear.3 mph88%30.15 "Hg10 mi
4:15 AM61 °FClear.6 mph88%30.16 "Hg10 mi
3:55 AM61 °FClear.N/A88%30.16 "Hg10 mi
3:35 AM63 °FClear.3 mph88%30.16 "Hg10 mi
2:55 AM63 °FPassing clouds.6 mph94%30.18 "Hg10 mi
1:35 AM64 °FLow clouds.5 mph88%30.18 "Hg10 mi
12:15 AM63 °FClear.No wind88%30.19 "Hg10 mi
11:55 PM
Sat, Nov 28
63 °FClear.No wind94%30.19 "Hg10 mi
11:35 PM63 °FClear.No wind94%30.19 "Hg10 mi
10:55 PM64 °FClear.No wind88%30.19 "Hg10 mi
10:15 PM64 °FClear.3 mph88%30.20 "Hg10 mi
9:55 PM64 °FClear.5 mph88%30.19 "Hg10 mi
9:35 PM66 °FClear.5 mph83%30.19 "Hg10 mi
9:15 PM66 °FClear.3 mph83%30.19 "Hg10 mi
8:55 PM66 °FPassing clouds.3 mph83%30.19 "Hg10 mi
8:35 PM68 °FPassing clouds.No wind78%30.19 "Hg10 mi
8:15 PM68 °FPassing clouds.3 mph78%30.18 "Hg10 mi
7:55 PM70 °FPassing clouds.3 mph73%30.18 "Hg10 mi
6:50 PM72 °FPassing clouds.6 mph69%30.16 "Hg10 mi
5:50 PM72 °FPassing clouds.6 mph69%30.15 "Hg10 mi
4:50 PM73 °FScattered clouds.6 mph65%30.14 "Hg10 mi
3:50 PM73 °FBroken clouds.6 mph65%30.14 "Hg10 mi
2:50 PM75 °FBroken clouds.9 mph57%30.15 "Hg10 mi
Weather by CustomWeather, © 2015

See weather overviewHow to use our weather pages